Regional Weather Roundup
Issued by NWS

Home | Current Version | Previous Version | Text Only | Print | Product List | Glossary Off
Versions: 1 2 3 4 5 6 7 8 9 10 11 12 13 14 15 16 17 18 19 20 21 22 23 24 25 26 27 28 29 30 31 32 33 34 35 36 37 38 39 40 41 42 43 44 45 46 47 48 49 50

000
ASUS43 KFSD 231402
RWRSD

WEATHER ROUNDUP FOR SOUTH DAKOTA
NATIONAL WEATHER SERVICE SIOUX FALLS SD
900 AM CDT WED JUL 23 2014

NOTE: "FAIR" INDICATES FEW OR NO CLOUDS BELOW 12,000 FEET WITH NO
SIGNIFICANT WEATHER AND/OR OBSTRUCTIONS TO VISIBILITY.


SDZ001>005-009-010-012>017-231500-
NORTHWEST AND NORTH CENTRAL SOUTH DAKOTA

CITY           SKY/WX    TMP DP  RH WIND       PRES   REMARKS
BUFFALO          N/A     68  61  78 CALM      30.18R
FAITH            N/A     69  61  75 SE20      30.24R
MOBRIDGE       SUNNY     70  59  68 SE13      30.25S
$$

SDZ012>016-024>037-041>051-057-063-072>074-231500-
SOUTHWEST AND SOUTH CENTRAL SOUTH DAKOTA

CITY           SKY/WX    TMP DP  RH WIND       PRES   REMARKS
RAPID CTY ARPT PTSUNNY   71  59  65 SE6       30.24R
PIERRE         SUNNY     72  60  66 SE16G23   30.25R
CUSTER         SUNNY     64  53  67 S5        30.39S
ELLSWORTH AFB  SUNNY     69  57  66 S8        30.24S
PHILIP         CLOUDY    68  61  78 NE10      30.21S
PINE RIDGE     PTSUNNY   70  56  61 S13G22    30.24F
WINNER         FAIR      70  58  65 SE16G24   30.28R
$$

SDZ004>011-016>023-039-040-231500-
NORTHEAST SOUTH DAKOTA

CITY           SKY/WX    TMP DP  RH WIND       PRES   REMARKS
ABERDEEN       MOSUNNY   67  59  75 S6        30.30R
WATERTOWN      SUNNY     68  55  63 E8        30.30S
SISSETON         N/A     68  59  73 CALM      30.29S
$$

SDZ017-020-022-023-036>040-048>070-231500-
SOUTHEAST SOUTH DAKOTA

CITY           SKY/WX    TMP DP  RH WIND       PRES   REMARKS
SIOUX FALLS    PTSUNNY   69  57  65 E7        30.29F
HURON          SUNNY     68  58  70 SE7       30.29R
CHAMBERLAIN    MOSUNNY   68  58  69 SE13G22   30.28S
MITCHELL       MOSUNNY   68  59  73 SE7       30.30S
YANKTON        MOSUNNY   68  57  68 CALM      30.31R
$$

ABBREVIATIONS USED IN REMARKS
   TC - TEMPERATURE IN CELSIUS
  WCI - WIND CHILL INDEX
   HX - HEAT INDEX
  VSB - VISIBILITY



USA.gov is the U.S. government's official web portal to all federal, state and local government web resources and services.